This is the latest recevied weather packets stored in our database for station/object JA0ZJX-13. If no packets are shown the sender has not sent any weather packets the latest 10 day(s).
| Time | Temp. | Humidity | Pressure | Rain* | Wind** | Luminosity | Snow |
|---|---|---|---|---|---|---|---|
| 1777826614 | 16.11° C | 88% | 1000.7 hPa | 2.54 mm | - | 0 W/m² | - |
| 1777826023 | 15.56° C | 88% | 1001.2 hPa | 2.29 mm | - | 0 W/m² | - |
| 1777825413 | 15.56° C | 88% | 1001.4 hPa | 2.29 mm | - | 0 W/m² | - |
| 1777824822 | 15.56° C | 88% | 1001.8 hPa | 1.78 mm | - | 0 W/m² | - |
| 1777824216 | 15.56° C | 88% | 1002.2 hPa | 1.78 mm | - | 0 W/m² | - |
| 1777823607 | 15.56° C | 88% | 1001.6 hPa | 1.52 mm | - | 0 W/m² | - |
| 1777823016 | 15.56° C | 87% | 1001.7 hPa | 1.52 mm | - | 0 W/m² | - |
| 1777822411 | 15.56° C | 87% | 1001.7 hPa | 1.52 mm | - | 0 W/m² | - |
| 1777821820 | 15.56° C | 87% | 1001.7 hPa | 1.52 mm | - | 0 W/m² | - |
| 1777821208 | 15.56° C | 87% | 1002.1 hPa | 1.52 mm | - | 0 W/m² | - |
| 1777820618 | 15.56° C | 88% | 1001.9 hPa | 1.52 mm | - | 0 W/m² | - |
| 1777820009 | 15.56° C | 88% | 1002.5 hPa | 1.52 mm | - | 0 W/m² | - |
| 1777819418 | 15.56° C | 87% | 1002.5 hPa | 1.52 mm | - | 0 W/m² | - |
| 1777818808 | 15.56° C | 87% | 1002.5 hPa | 1.52 mm | - | 0 W/m² | - |
| 1777818217 | 15.56° C | 87% | 1002.9 hPa | 1.27 mm | - | 0 W/m² | - |
| 1777817609 | 15° C | 87% | 1002.9 hPa | 1.27 mm | - | 0 W/m² | - |
| 1777817017 | 15° C | 87% | 1003 hPa | 1.02 mm | - | 0 W/m² | - |
| 1777816405 | 15° C | 87% | 1003.1 hPa | 0.76 mm | - | 0 W/m² | - |
| 1777815813 | 15° C | 87% | 1003 hPa | 0.76 mm | - | 0 W/m² | - |
| 1777815207 | 15° C | 87% | 1003.2 hPa | 0.76 mm | - | 0 W/m² | - |
| 1777814616 | 15° C | 87% | 1003.5 hPa | 1.02 mm | - | 0 W/m² | - |
| 1777814005 | 14.44° C | 87% | 1003.7 hPa | 0.76 mm | - | 0 W/m² | - |
| 1777813419 | 14.44° C | 87% | 1003.7 hPa | 0.76 mm | - | 0 W/m² | - |
| 1777812807 | 14.44° C | 87% | 1003.9 hPa | 1.27 mm | - | 0 W/m² | - |
| 1777812217 | 13.89° C | 87% | 1004.4 hPa | 1.02 mm | - | 0 W/m² | - |
* Rain latest hour (hover to see other rain measurements)
** Current wind speed in m/s (hover to see current wind gust speed)